Location: Glens Falls
(43.3090°N, 73.6440°W)
Time: 09:37:55
(UTC-04:00)

Daily predictions for brighter satellites

Satellite Brightness Start Highest point End
(mag) Time Altitude Azimuth Time Altitude Azimuth Time Altitude Azimuth
Cosmos 1821 Rocket 4.1 19:31:22 10° S 19:37:41 66° E 19:43:58 10° NNE
Cosmos 1812 Rocket 3.7 19:34:16 10° S 19:38:34 54° E 19:42:51 10° NNE
Cosmos 1818 4.4 19:33:41 10° NNW 19:38:38 34° NE 19:43:33 10° ESE
Cosmos 2278 Rocket 2.6 19:34:07 10° S 19:39:24 41° ESE 19:44:42 10° NE
FENGYUN 3A 3.7 19:35:46 10° SSE 19:41:06 64° ENE 19:46:27 10° N
ASTRO F (AKARI) 4.3 19:39:11 10° NNE 19:42:20 84° WNW 19:45:31 10° SSW
Cosmos 2228 4.3 19:39:19 10° SSW 19:43:24 47° WNW 19:47:32 10° N
USA 186 3.2 19:44:00 10° E 19:44:40 11° ENE 19:45:18 10° NE
BREEZE-M DEB (TANK) 3.9 19:42:54 10° WNW 19:45:00 21° N 19:46:56 10° NE
COSMOS 2487 4.4 19:45:36 10° NNE 19:47:35 14° ENE 19:49:33 10° E
Cosmos 2298 Rocket 4.2 19:43:11 10° SSW 19:48:29 81° WNW 19:53:51 10° NNE
Helios 1B rocket 3.8 19:47:35 10° NE 19:50:33 19° E 19:53:29 10° SE
Meteor 1-4 Rocket 3.9 19:48:23 10° SE 19:50:49 18° E 19:53:15 10° NE
Resurs 01 Rocket 1.8 19:47:16 10° SSE 19:51:32 52° ENE 19:55:52 10° N
FengYun 1-2 T 4.2 19:46:25 10° SSE 19:51:57 74° ENE 19:57:34 10° N
ATLAS 5 CENTAUR R/B 3.4 19:53:10 10° SE 19:55:14 13° ESE 19:57:20 10° E
Cosmos 1605 Rocket 4.2 19:49:46 10° SSE 19:55:45 50° E 20:01:51 10° NNE
Cosmos 1544 3.9 19:53:43 10° SSE 19:56:53 29° E 20:00:07 10° NNE
H-2A R/B 2.8 19:55:55 10° SSE 19:59:45 63° ENE 20:03:40 10° N
Lacrosse 4 Rocket 2.4 19:55:53 10° SW 19:59:48 48° WNW 20:03:45 10° NNE
Cosmos 1758 4.1 19:56:59 10° SSE 20:00:26 29° E 20:03:55 10° NNE
Helios 1A 3.8 19:57:43 10° SE 20:01:25 31° ENE 20:05:07 10° N
Meteor 1-24 Rocket 3.8 19:57:28 10° N 20:02:58 85° W 20:08:39 10° S
Cosmos 2123 Rocket 4.0 20:01:45 10° N 20:08:06 80° E 20:14:23 10° S
Cosmos 2082 Rocket 2.8 20:02:56 10° N 20:08:14 38° ENE 20:12:40 14° ESE
Cosmos 1953 3.0 20:05:31 10° SSE 20:09:12 34° E 20:12:53 10° NNE
Cosmos-2242 4.3 20:07:19 11° SE 20:10:19 20° E 20:13:27 10° NE
Cosmos 1939 Rocket 4.2 20:10:56 16° ESE 20:12:55 22° ENE 20:16:09 10° NNE
ALOS 2.9 20:10:48 10° S 20:15:24 58° W 20:20:02 10° NNW
Cosmos 1867 4.1 20:10:36 10° S 20:15:27 34° ESE 20:20:21 10° NE
USA 215 3.9 20:10:07 10° ENE 20:15:55 33° SE 20:21:40 10° S
Cosmos 158 Rocket 4.5 20:16:42 10° N 20:21:30 39° ENE 20:24:49 19° ESE
Cosmos 1766 4.0 20:21:35 10° SSW 20:25:23 55° W 20:29:14 10° N
Spot 2 Rocket 3.7 20:20:28 10° S 20:25:33 77° WSW 20:30:43 10° NNW
Cosmos 1271 Rocket 3.8 20:25:41 23° ESE 20:26:40 25° E 20:30:01 10° NE
Lacrosse 5 rocket 2.6 20:25:55 10° NNW 20:29:19 26° NNE 20:30:54 20° ENE
Timation 2 Rocket 4.2 20:25:04 10° NNW 20:31:15 49° ENE 20:35:07 21° ESE
CZ-4B DEB 3.1 20:31:08 33° ESE 20:32:00 42° ENE 20:34:58 10° N
Resurs 1-3 4.0 20:30:06 10° S 20:34:27 64° WSW 20:38:50 10° NNW
Spot 1 4.2 20:32:39 10° SSE 20:37:16 81° ENE 20:42:11 10° NNW
RESURS DK-1 4.1 20:36:34 10° NW 20:40:15 31° WSW 20:43:54 10° S
CZ-4B DEB 4.4 20:38:48 24° SSE 20:40:50 70° ENE 20:44:24 10° N
BREEZE-M DEB (TANK) 3.3 20:38:31 10° WSW 20:41:31 85° SSE 20:50:24 10° ENE
Envisat 3.0 20:40:01 19° SSE 20:43:34 60° ENE 20:48:34 10° N
H-2A R/B 4.1 20:43:27 12° ENE 20:43:36 12° ENE 20:45:27 10° NE
Cosmos 1674 2.6 20:42:11 10° N 20:45:56 63° E 20:47:22 34° SSE
Cosmos 1447 Rocket 4.4 20:40:33 10° N 20:46:42 89° ENE 20:52:52 10° S
Cosmos 1408 Rocket 3.5 20:43:16 10° N 20:47:44 70° E 20:50:27 23° SSE
USA 267 4.2 20:45:27 18° ENE 20:49:37 36° NNE 20:55:27 10° NW
Meteor 1-21 Rocket 4.3 20:43:52 10° N 20:49:43 89° E 20:55:38 10° S
Lacrosse 5 2.5 20:45:36 10° WSW 20:50:34 55° NW 20:55:35 10° NE
Cosmos 1459 Rocket 4.1 20:45:18 10° SSE 20:51:22 54° E 20:57:22 10° NNE
Cosmos 1125 Rocket 3.4 20:46:34 10° SSW 20:51:46 85° ESE 20:57:01 10° NNE
Cosmos 2344 4.2 20:45:56 10° SW 20:53:32 62° NW 21:02:22 10° NE
BREEZE-M DEB (TANK) 3.6 20:50:57 10° SSW 20:54:28 48° SE 21:05:40 10° ENE
Cosmos 1048 Rocket 3.9 20:49:27 10° NNW 20:54:37 90° NNE 20:57:42 25° SSE
Cosmos 2173 Rocket 4.0 20:49:51 10° SSE 20:55:51 57° E 21:01:58 10° NNE
Geosat 4.2 20:51:16 10° NNE 20:56:17 73° WNW 21:01:17 10° SW
SPOT 5 4.2 20:56:29 26° ENE 20:56:54 26° ENE 21:01:16 10° N
Timation 1 Rocket 4.4 20:51:58 10° SSW 20:57:58 84° WNW 21:04:03 10° NNE
SAR-Lupe-4 4.5 20:55:34 14° S 20:58:25 48° W 21:01:54 10° NNW
Cosmos 1805 4.4 20:55:16 10° SSW 20:59:00 44° WNW 21:02:46 10° N
YAOGAN 6 3.6 20:59:41 33° NE 20:59:41 33° NE 21:02:28 10° N
Tiangong 1 3.6 21:01:48 10° WSW 21:03:03 12° SSW 21:03:03 12° SSW
ERS-1 Rocket 3.1 21:03:25 43° ESE 21:04:33 51° ENE 21:09:26 10° N
Abrixas 3.8 21:04:53 10° WNW 21:06:57 34° WSW 21:06:57 34° WSW
Cosmos 1470 2.7 21:12:27 38° SSW 21:13:54 83° W 21:17:54 10° N
Cosmos 2151 4.3 21:11:23 10° N 21:13:55 27° NE 21:13:55 27° NE
USA 186 4.1 21:15:09 14° W 21:15:20 14° W 21:16:38 10° WNW
Cosmos 1340 Rocket 2.7 21:12:51 10° N 21:16:55 88° WSW 21:17:07 80° S
Meteor 1-29 4.0 21:14:37 10° N 21:17:59 47° WNW 21:21:00 12° SW
Cosmos 1833 Rocket 2.8 21:13:10 10° NNW 21:18:47 71° WSW 21:21:14 34° S
Terra 4.2 21:21:37 11° NE 21:21:37 11° NE 21:22:02 10° NE
H-2A R/B (2) 4.3 21:18:59 10° SSW 21:20:59 15° S 21:20:59 15° S
NOAA 11 4.4 21:22:01 48° E 21:22:20 48° ENE 21:27:36 10° N
COSMOS 2487 3.6 21:19:54 10° NW 21:23:16 40° WSW 21:23:40 38° WSW
Cosmos 2278 Rocket 4.0 21:18:32 10° WSW 21:23:34 32° NW 21:28:39 10° N
GP-B 4.2 21:19:53 10° SSW 21:24:07 43° W 21:28:22 10° NNW
MetOp-B 4.3 21:24:40 52° ENE 21:24:50 52° ENE 21:30:02 10° N
Helios 1B rocket 3.9 21:22:09 10° N 21:25:59 37° WNW 21:29:46 10° SW
Cosmos 2251 Rocket 3.7 21:21:10 10° NNW 21:26:24 54° ENE 21:26:30 54° ENE
Cosmos 2016 Rocket 3.8 21:24:18 32° S 21:27:22 73° E 21:33:31 10° NNE
Cosmos 1733 3.8 21:27:32 47° SW 21:28:17 57° W 21:32:08 10° N
Resurs 01 Rocket 4.5 21:25:43 10° SW 21:28:20 15° W 21:30:57 10° NW
Meteor 2-17 Rocket 4.3 21:25:50 35° S 21:28:32 73° E 21:34:41 10° NNE
CZ-3B DEB 3.7 21:23:37 10° W 21:31:39 37° NNW 21:34:48 16° NNE
Cosmos 1725 Rocket 4.0 21:34:40 57° E 21:34:47 57° E 21:40:51 10° NNE
ATLAS 5 CENTAUR R/B 1.8 21:34:19 10° SW 21:39:02 80° NW 21:44:11 10° NE
Cosmos 2100 Rocket 4.5 21:35:50 10° SSW 21:42:03 60° WNW 21:48:21 10° N
Meteor 1-11 4.0 21:38:30 10° N 21:44:04 77° ENE 21:44:04 77° ENE
Cosmos 1939 Rocket 4.4 21:46:50 29° WSW 21:47:40 32° W 21:51:25 10° NNW
SL-08 R/B 4.4 21:46:09 51° S 21:47:57 87° E 21:54:26 10° N
Tsikada Rocket 3.8 21:42:51 10° N 21:49:04 73° E 21:49:15 72° E
Cosmos 2082 Rocket 3.6 21:47:10 10° NW 21:52:14 34° WSW 21:54:34 24° SSW
USA 215 3.3 21:52:44 10° NE 21:59:15 75° NW 22:05:46 10° WSW
Meteor 1-16 Rocket 4.4 21:58:15 59° SW 21:59:20 75° W 22:05:18 10° N
H-2A R/B 4.4 22:06:50 15° N 22:06:50 15° N 22:07:42 10° N
Lacrosse 5 rocket 3.5 22:04:58 10° NW 22:06:37 23° WNW 22:06:37 23° WNW
ARGOS 3.5 22:10:26 60° NNW 22:10:26 60° NNW 22:14:49 10° NNW
H-2A R/B 3.1 22:24:05 41° N 22:24:05 41° N 22:27:29 10° N
USA 267 3.3 22:32:47 74° NNW 22:32:47 74° NNW 22:38:42 10° NW
Lacrosse 5 4.1 22:30:43 10° WNW 22:34:31 21° NNW 22:36:05 18° N
SPOT 5 4.2 22:35:43 40° WNW 22:35:43 40° WNW 22:39:48 10° NNW
Cosmos 2369 Rocket 4.5 22:50:52 15° NNE 22:50:52 15° NNE 22:51:48 10° NNE
Terra 4.2 23:00:29 20° NNW 23:00:29 20° NNW 23:01:54 10° NNW
ATLAS 5 CENTAUR R/B 4.4 23:21:16 10° WNW 23:24:38 18° NNW 23:28:13 10° NNE
